Regional Weather Roundup
Issued by NWS

Home | Current Version | Previous Version | Text Only | Print | Product List | Glossary Off
Versions: 1 2 3 4 5 6 7 8 9 10 11 12 13 14 15 16 17 18 19 20 21 22 23 24 25 26 27 28 29 30 31 32 33 34 35 36 37 38 39 40 41 42 43 44 45 46 47 48 49 50

435
ASUS43 KBIS 280602
RWRND

NORTH DAKOTA REGIONAL WEATHER ROUNDUP
NATIONAL WEATHER SERVICE BISMARCK ND
100 AM CDT SUN AUG 28 2016

NOTE: "FAIR" INDICATES FEW OR NO CLOUDS BELOW 12,000 FEET WITH NO
SIGNIFICANT WEATHER AND/OR OBSTRUCTIONS TO VISIBILITY.


NDZ001>003-009>011-017-280700-
NORTHWEST NORTH DAKOTA

CITY           SKY/WX    TMP DP  RH WIND       PRES   REMARKS
WILLISTON      MOCLDY    69  47  45 S7        29.81S
6HR MIN TEMP:  69; 6HR MAX TEMP:  82;

MINOT          FAIR      58  48  69 SE6       29.88S
MINOT AFB      FAIR      55  47  76 SE6       29.87S
$$

NDZ018>021-031>035-040>046-280700-
SOUTHWEST NORTH DAKOTA

CITY           SKY/WX    TMP DP  RH WIND       PRES   REMARKS
BISMARCK       CLEAR     58  52  80 NE7       29.91F
6HR MIN TEMP:  58; 6HR MAX TEMP:  79;

DICKINSON      PTCLDY    60  49  66 S10       29.88R
GARRISON         N/A     60  54  80 SE7       29.89S
6HR MIN TEMP:  60; 6HR MAX TEMP:  77;

HETTINGER ARPT CLEAR     65  52  62 SE8       29.92S
$$

NDZ004>008-012>016-024-026-027-054-280700-
NORTHEAST NORTH DAKOTA

CITY           SKY/WX    TMP DP  RH WIND       PRES   REMARKS
GRAND FORKS    FAIR      56  54  93 S7        29.97R
GRND FRKS AFB  FAIR      60  57  89 SW9       29.97R
DEVILS LAKE    FAIR      62  60  93 SE10      29.95S
$$

NDZ022-023-025-028>030-036>039-047>053-280700-
SOUTHEAST NORTH DAKOTA

CITY           SKY/WX    TMP DP  RH WIND       PRES   REMARKS
FARGO          FAIR      64  59  83 SE9       29.99R
6HR MIN TEMP:  60; 6HR MAX TEMP:  72;

JAMESTOWN      FAIR      59  57  93 SE6       29.96S
$$





USA.gov is the U.S. government's official web portal to all federal, state and local government web resources and services.